Hagerstown, MD

8:05 PM EDT on October 14, 2019 (GMT -0400)
Hagerstown Regional-Henson

Weather History for KHGR - September, 2019

Change the Weather History Date:

Monday, September 16, 2019

  Actual Average Record
Temperature  
Mean Temperature 76 °F 66 °F  
Max Temperature 88 °F 75 °F 89 °F (1998)
Min Temperature 64 °F 56 °F 44 °F (2001)
Degree Days  
Heating Degree Days 0 2  
Month to date heating degree days 0 14  
Since 1 July heating degree days 0 19  
Cooling Degree Days 11 3  
Month to date cooling degree days 147 69  
Year to date cooling degree days 1356 937  
Growing Degree Days 25 (Base 50)    
Moisture  
Dew Point 59 °F    
Average Humidity 57    
Maximum Humidity 78    
Minimum Humidity 36    
Precipitation  
Precipitation 0.00 in 0.14 in 1.47 in (1999)
Month to date precipitation 0.38 1.72  
Year to date precipitation 28.75 28.35  
Sea Level Pressure  
Sea Level Pressure 30.06 in    
Wind  
Wind Speed 4 mph (ENE)    
Max Wind Speed 9 mph    
Max Gust Speed 11 mph    
Visibility 10 miles    
Events      
T = Trace of Precipitation, MM = Missing Value Source: NWS Daily Summary

Daily Weather History Graph

Daily Weather History Graph

Search for Another Location

Airport or City:

Astronomy

Sep. 16, 2019 Rise Set
Actual Time 6:52 AM EDT 7:18 PM EDT
Civil Twilight 6:25 AM EDT 7:45 PM EDT
Nautical Twilight 5:53 AM EDT 8:16 PM EDT
Astronomical Twilight 5:21 AM EDT 8:49 PM EDT
Moon 8:52 PM EDT (9/16) 8:57 AM EDT (9/16)
Length of Visible Light 13h 19m
Length of Day
12h 25m
Waning Gibbous, 94% of the Moon is Illuminated
Sep 16
Waning Gibbous
Sep 21
Last Quarter
Sep 28
New
Oct 5
First Quarter
Oct 13
Full

Hourly Weather History & Observations

Time (EDT) Temp. Heat Index Dew Point Humidity Pressure Visibility Wind Dir Wind Speed Gust Speed Precip Events Conditions
12:53 AM 70.0 °F - 57.0 °F 63% 30.12 in 10.0 mi Calm Calm - N/A   Overcast
1:53 AM 66.9 °F - 57.0 °F 70% 30.11 in 10.0 mi ESE 6.9 mph - N/A   Partly Cloudy
2:53 AM 69.1 °F - 57.0 °F 65% 30.10 in 10.0 mi SSE 3.5 mph - N/A   Overcast
3:53 AM 66.0 °F - 57.9 °F 75% 30.10 in 10.0 mi Calm Calm - N/A   Mostly Cloudy
4:53 AM 66.9 °F - 57.0 °F 70% 30.09 in 10.0 mi East 3.5 mph - N/A   Scattered Clouds
5:53 AM 64.9 °F - 57.0 °F 75% 30.09 in 10.0 mi SSE 5.8 mph - N/A   Clear
6:53 AM 64.9 °F - 57.0 °F 75% 30.10 in 10.0 mi SSE 4.6 mph - N/A   Clear
8:53 AM 68.0 °F - 59.0 °F 73% 30.12 in 10.0 mi Calm Calm - N/A   Mostly Cloudy
9:53 AM 69.1 °F - 57.9 °F 68% 30.13 in 10.0 mi SW 4.6 mph - N/A   Overcast
10:53 AM 73.9 °F - 59.0 °F 59% 30.11 in 10.0 mi Calm Calm - N/A   Scattered Clouds
11:53 AM 80.1 °F 80.6 °F 57.9 °F 47% 30.09 in 10.0 mi Calm Calm - N/A   Scattered Clouds
12:53 PM 84.0 °F 83.5 °F 57.9 °F 41% 30.06 in 10.0 mi Calm Calm - N/A   Clear
1:53 PM 84.0 °F 83.3 °F 57.0 °F 40% 30.04 in 10.0 mi Variable 3.5 mph - N/A   Scattered Clouds
2:53 PM 86.0 °F 84.9 °F 57.0 °F 37% 30.02 in 10.0 mi Calm Calm - N/A   Partly Cloudy
4:53 PM 86.0 °F 84.9 °F 57.0 °F 37% 29.98 in 10.0 mi WNW 3.5 mph - N/A   Mostly Cloudy
5:53 PM 86.0 °F 85.0 °F 57.9 °F 38% 29.98 in 10.0 mi ENE 5.8 mph - N/A   Overcast
6:53 PM 82.0 °F 82.7 °F 61.0 °F 49% 30.00 in 10.0 mi ENE 5.8 mph - N/A   Mostly Cloudy
7:53 PM 79.0 °F - 61.0 °F 54% 30.01 in 10.0 mi NE 6.9 mph - N/A   Mostly Cloudy
8:53 PM 77.0 °F - 61.0 °F 58% 30.03 in 10.0 mi ENE 6.9 mph - N/A   Mostly Cloudy
9:53 PM 73.9 °F - 62.1 °F 66% 30.04 in 10.0 mi North 5.8 mph - N/A   Partly Cloudy
10:53 PM 73.0 °F - 63.0 °F 71% 30.05 in 10.0 mi North 5.8 mph - N/A   Mostly Cloudy
11:53 PM 72.0 °F - 63.0 °F 73% 30.06 in 10.0 mi North 6.9 mph - N/A   Overcast